Showing default

NOVASAR 1, 43619

Orbit data source: Space-Track

NOVASAR 1, 43619 is a payload satellite owned by SSTL (Astrium) (UK) in SSO that was launched on Sun, 16 Sep 2018 UTC via a PSLV launch vehicle from the Sirharikota (SRI). Payload-class satellites include a variety of spacecraft equipped with specific instruments for various scientific and technological missions. These include communications satellites like Starlink; space stations such as the ISS; scientific satellites like the Hubble; Earth observation satellites from companies like Planet Labs, Umbra, and HawkEye 360; GPS; miniature CubeSats for education and research; and military/defense satellites.

Loading next visibility...
Identifier
43619, 2018-071B
Orbit
SSO
Country
Flag of UKUK
Related business
Manufacturer
SSTL (Astrium)
Mission
Operational Commercial Imaging
Bus & Motor
NOVASAR-S, XE
Mass
445 kg wet, 400 kg dry
Launch date (UTC)
2018-09-16 (7 years ago)
Launch vehicle
PSLV
Launch site
Sirharikota (SRI)
Object type
Payload
Rocket body
Debris
Shape & HBR
Tri Box, 1.5 m
Radar Cross Section
3.500 m², Large (>1 m²)

Expand to show TLE details & history
Last TLE update: 1 day ago

TLE from 1 day ago
0 NOVASAR 1
1 43619U 18071B   25259.72819565  .00000476  00000-0  47165-4 0  9990
2 43619  97.5418 137.5911 0001295  56.6631 303.4714 14.96177752382048
Epoch: 2025-09-16T17:28Z
TLE epoch observation values (Epoch: 2025-09-16T17:28:36.104Z)
Latitude
-0.00007°
Longitude
-120.47366°
Altitude
581.277 km
Speed
7.57 km/s
True Right ascension
09h 10m 21s
True Declination
0° 00' 00"
Sunlit
Object was in daylight at epoch
Visualization orbit readout
Latitude
Unknown
Longitude
Unknown
Altitude
Unknown
Speed
Unknown
Apparent Right ascension
Unknown
Apparent Declination
Unknown
Sunlit
N/A
Visualization observer readout
Local Sidereal Time
15:39:20
Azimuth
Unknown
Elevation
Unknown
Doppler factor
Unknown
Orbital elements
Apogee altitude
576.624 km
Perigee altitude
574.822 km
Semi-major axis
6,953.86 km
Eccentricity
0.00013
Inclination
97.5418°
RAAN
137.5911°
Arg. of periapsis
56.6631°
True anomaly
303.45902°
Mean anomaly
303.4714°
Eccentric anomaly
303.46521°
Mean motion
3.74287 °/min
Orbital period
96.18 mins
BSTAR
0.000047165
Loading maneuver chart data...
Computing Atmospheric mass density...
Loading historical data...
Loading historical data...
Loading historical data...
Loading historical data...
Loading historical data...
Loading historical data...
Loading historical data...
Other satellites on launch #71 in the year 2018 (2018-09-16 UTC)

Documentation

Showing up to 5 results
|